Weather History for KMWO - March, 2013

Change the Weather History Date:

Monday, March 18, 2013

  Actual Average (KDAY) Record (KDAY)
Temperature  
Mean Temperature 41 °F 41 °F  
Max Temperature 50 °F 50 °F 78 °F (2012)
Min Temperature 32 °F 32 °F 3 °F (1906)
Degree Days  
Heating Degree Days 24 24  
Month to date heating degree days 487  
Since 1 July heating degree days 4762  
Cooling Degree Days 0 0  
Month to date cooling degree days 0  
Year to date cooling degree days 0  
Moisture  
Dew Point 40 °F    
Average Humidity 97    
Maximum Humidity 100    
Minimum Humidity 81    
Precipitation  
Precipitation 0.00 in 0.11 in 1.65 in (2008)
Month to date precipitation 1.78  
Year to date precipitation 6.73  
Snow  
Snow 0.00 in 0.10 in 2.00 in (1896)
Month to date snowfall 2.4  
Since 1 July snowfall 21.7  
Snow Depth -    
Sea Level Pressure  
Sea Level Pressure 29.77 in    
Wind  
Wind Speed 10 mph (SSE)    
Max Wind Speed 21 mph    
Max Gust Speed 29 mph    
Visibility 7 miles    
Events Snow    
T = Trace of Precipitation, MM = Missing Value Source: NWS Daily Summary

Daily Weather History Graph

Daily Weather History Graph

Search for Another Location

Airport or City:

Trip Planner

Search our weather history database for the weather conditions in past years. The results will help you decide how hot, cold, wet, or windy it might be!

Date:

Astronomy

Mar. 18, 2013 Rise Set
Actual Time 7:43 AM EDT 7:47 PM EDT
Civil Twilight 7:17 AM EDT 8:14 PM EDT
Nautical Twilight 6:45 AM EDT 8:46 PM EDT
Astronomical Twilight 6:13 AM EDT 9:17 PM EDT
Moon 11:44 AM EDT (3/18) 1:45 AM EDT (3/18)
Length of Visible Light 12h 57m
Length of Day
12h 04m
Waxing Crescent, 40% of the Moon is Illuminated
Mar 18
Waxing Crescent
Mar 19
First Quarter
Mar 27
Full
Apr 3
Last Quarter
Apr 10
New

Hourly Weather History & Observations

Time (EDT) Temp. Windchill Dew Point Humidity Pressure Visibility Wind Dir Wind Speed Gust Speed Precip Events Conditions
12:15 AM 37.4 °F 29.3 °F 32.0 °F 81% 30.03 in 10.0 mi East 12.7 mph 18.4 mph N/A   Overcast
12:35 AM 35.1 °F 26.9 °F 32.0 °F 89% 30.02 in 7.0 mi East 11.5 mph - N/A Snow Light Snow
12:55 AM 35.1 °F 26.4 °F 32.9 °F 92% 30.00 in 5.0 mi East 12.7 mph - N/A Snow Light Snow
1:15 AM 35.1 °F 27.4 °F 33.6 °F 94% 30.00 in 7.0 mi ENE 10.4 mph - N/A Snow Light Snow
1:35 AM 35.1 °F 25.5 °F 34.0 °F 96% 29.98 in 5.0 mi ENE 15.0 mph - N/A Snow Light Snow
1:55 AM 35.1 °F 26.4 °F 34.3 °F 97% 29.97 in 3.0 mi ENE 12.7 mph - N/A Snow Light Snow
2:15 AM 33.8 °F 24.3 °F 33.4 °F 99% 29.96 in 3.0 mi ENE 13.8 mph 19.6 mph N/A Snow Light Snow
2:35 AM 33.8 °F 24.8 °F 33.8 °F 100% 29.95 in 3.0 mi ENE 12.7 mph - N/A Snow Light Snow
2:55 AM 33.1 °F 23.9 °F 33.1 °F 100% 29.93 in 5.0 mi ENE 12.7 mph - N/A Snow Light Snow
3:15 AM 32.9 °F 23.7 °F 32.9 °F 100% 29.92 in 7.0 mi ENE 12.7 mph - N/A Snow Light Snow
3:35 AM 33.3 °F 25.1 °F 33.3 °F 100% 29.91 in 5.0 mi ENE 10.4 mph - N/A Snow Light Snow
3:55 AM 33.4 °F 25.9 °F 33.4 °F 100% 29.90 in 3.0 mi ENE 9.2 mph - N/A Snow Light Snow
4:15 AM 32.9 °F 23.7 °F 32.9 °F 100% 29.87 in 3.0 mi ENE 12.7 mph 18.4 mph N/A Snow Light Snow
4:35 AM 33.4 °F 25.9 °F 33.4 °F 100% 29.87 in 2.5 mi NE 9.2 mph - N/A Snow Light Snow
4:55 AM 33.4 °F 28.1 °F 33.4 °F 100% 29.87 in 2.5 mi NE 5.8 mph - N/A Snow Light Snow
5:15 AM 33.8 °F 25.3 °F 33.8 °F 100% 29.86 in 1.2 mi East 11.5 mph - N/A Snow Light Snow
5:35 AM 32.9 °F 25.3 °F 32.9 °F 100% 29.83 in 2.0 mi East 9.2 mph - N/A Snow Light Snow
5:55 AM 33.8 °F 27.7 °F 33.8 °F 100% 29.83 in 2.5 mi East 6.9 mph - N/A Snow Light Snow
6:15 AM 35.1 °F 27.9 °F 35.1 °F 100% 29.80 in 3.0 mi East 9.2 mph - N/A Snow Light Snow
6:35 AM 35.1 °F 27.4 °F 35.1 °F 100% 29.78 in 2.5 mi East 10.4 mph - N/A Snow Light Snow
6:55 AM 35.1 °F 24.8 °F 35.1 °F 100% 29.70 in 4.0 mi ESE 17.3 mph 26.5 mph N/A Snow Light Snow
7:15 AM 35.1 °F - 35.1 °F 100% 29.78 in 10.0 mi Calm Calm - N/A   Overcast
7:35 AM 35.2 °F 31.2 °F 35.1 °F 99% 29.78 in 10.0 mi East 4.6 mph - N/A   Overcast
7:55 AM 35.1 °F 30.1 °F 35.1 °F 100% 29.77 in 10.0 mi NE 5.8 mph - N/A   Overcast
8:15 AM 35.1 °F 31.0 °F 35.1 °F 100% 29.78 in 10.0 mi ENE 4.6 mph - N/A   Overcast
8:35 AM 35.2 °F 31.2 °F 35.2 °F 100% 29.75 in 10.0 mi ENE 4.6 mph - N/A   Overcast
8:55 AM 36.5 °F 31.0 °F 36.5 °F 100% 29.75 in 10.0 mi East 6.9 mph - N/A   Overcast
9:15 AM 37.6 °F - 37.6 °F 100% 29.75 in 10.0 mi Calm Calm - N/A   Overcast
9:35 AM 37.6 °F 35.1 °F 37.6 °F 100% 29.73 in 10.0 mi ENE 3.5 mph - N/A   Overcast
9:55 AM 37.6 °F 33.1 °F 37.6 °F 100% 29.72 in 10.0 mi ENE 5.8 mph - N/A   Overcast
10:15 AM 38.1 °F 34.6 °F 37.9 °F 99% 29.71 in 10.0 mi East 4.6 mph - N/A   Overcast
10:35 AM 38.8 °F 35.4 °F 38.7 °F 99% 29.70 in 10.0 mi ESE 4.6 mph - N/A   Overcast
10:55 AM 40.1 °F 38.0 °F 39.7 °F 99% 29.70 in 10.0 mi ESE 3.5 mph - N/A   Overcast
11:15 AM 40.1 °F 36.9 °F 39.7 °F 99% 29.70 in 10.0 mi SSE 4.6 mph - N/A   Overcast
11:35 AM 40.1 °F 36.1 °F 39.7 °F 99% 29.70 in 10.0 mi SSE 5.8 mph - N/A   Overcast
11:55 AM 40.1 °F 38.0 °F 40.1 °F 100% 29.69 in 2.5 mi SSE 3.5 mph - N/A   Overcast
12:15 PM 40.5 °F 36.5 °F 40.5 °F 100% 29.68 in 10.0 mi SSE 5.8 mph - N/A   Overcast
12:35 PM 41.2 °F - 41.2 °F 100% 29.67 in 10.0 mi Calm Calm - N/A   Overcast
12:55 PM 41.5 °F 38.6 °F 41.5 °F 100% 29.67 in 2.0 mi South 4.6 mph - N/A   Overcast
1:15 PM 42.1 °F 39.2 °F 42.1 °F 100% 29.67 in 2.5 mi SW 4.6 mph - N/A   Overcast
1:35 PM 41.5 °F 39.6 °F 41.5 °F 100% 29.67 in 1.2 mi SW 3.5 mph - N/A   Overcast
1:55 PM 42.8 °F 40.1 °F 42.8 °F 100% 29.66 in 1.2 mi SW 4.6 mph - N/A   Overcast
2:15 PM 45.1 °F 41.4 °F 45.1 °F 100% 29.66 in 1.5 mi SW 6.9 mph - N/A   Overcast
2:35 PM 46.4 °F 44.3 °F 46.4 °F 100% 29.64 in 2.0 mi SSW 4.6 mph - N/A   Overcast
2:55 PM 47.7 °F - 47.7 °F 100% 29.63 in 5.0 mi SSW 10.4 mph - N/A   Overcast
3:15 PM 47.7 °F - 47.7 °F 100% 29.64 in 10.0 mi SW 11.5 mph - N/A   Overcast
3:35 PM 47.7 °F - 47.7 °F 100% 29.62 in 10.0 mi SW 11.5 mph - N/A   Overcast
3:55 PM 48.4 °F - 48.4 °F 100% 29.62 in 10.0 mi SW 12.7 mph - N/A   Overcast
4:15 PM 50.2 °F - 50.0 °F 99% 29.63 in 10.0 mi SW 13.8 mph - N/A   Overcast
4:35 PM 50.2 °F - 50.0 °F 99% 29.62 in 10.0 mi SW 8.1 mph - N/A   Overcast
4:55 PM 50.2 °F - 50.0 °F 99% 29.63 in 10.0 mi SW 6.9 mph - N/A   Overcast
5:15 PM 50.2 °F - 49.3 °F 97% 29.64 in 10.0 mi WSW 13.8 mph 20.7 mph N/A   Overcast
5:35 PM 50.2 °F - 48.6 °F 94% 29.64 in 10.0 mi West 11.5 mph 16.1 mph N/A   Overcast
5:55 PM 50.2 °F - 48.2 °F 93% 29.65 in 10.0 mi WSW 16.1 mph 20.7 mph N/A   Overcast
6:15 PM 49.1 °F - 47.3 °F 93% 29.67 in 10.0 mi West 12.7 mph - N/A   Overcast
6:35 PM 48.0 °F - 45.9 °F 92% 29.68 in 10.0 mi West 20.7 mph 28.8 mph N/A   Overcast
6:55 PM 47.7 °F - 45.7 °F 93% 29.69 in 10.0 mi West 15.0 mph 26.5 mph N/A   Overcast
7:15 PM 47.7 °F - 46.0 °F 94% 29.71 in 10.0 mi West 15.0 mph 21.9 mph N/A   Overcast
7:35 PM 47.7 °F - 45.5 °F 92% 29.73 in 10.0 mi West 19.6 mph 26.5 mph N/A   Overcast
7:55 PM 47.7 °F - 45.5 °F 92% 29.74 in 10.0 mi West 13.8 mph 18.4 mph N/A   Overcast
8:15 PM 45.1 °F 38.1 °F 43.9 °F 95% 29.75 in 10.0 mi West 16.1 mph 21.9 mph N/A   Overcast
8:35 PM 45.1 °F 38.8 °F 43.9 °F 95% 29.76 in 10.0 mi West 13.8 mph - N/A   Overcast
8:55 PM 44.1 °F 38.1 °F 42.8 °F 95% 29.77 in 10.0 mi WSW 11.5 mph 17.3 mph N/A   Overcast
9:15 PM 42.8 °F 36.2 °F 41.0 °F 93% 29.78 in 10.0 mi West 12.7 mph 24.2 mph N/A   Overcast
9:35 PM 41.9 °F 35.9 °F 40.6 °F 95% 29.79 in 10.0 mi West 10.4 mph 17.3 mph N/A   Overcast
9:55 PM 41.2 °F 33.4 °F 39.4 °F 93% 29.81 in 10.0 mi West 15.0 mph 20.7 mph N/A   Overcast
10:15 PM 40.6 °F 34.3 °F 38.5 °F 92% 29.82 in 10.0 mi West 10.4 mph 18.4 mph N/A   Overcast
10:35 PM 40.3 °F 31.3 °F 36.7 °F 87% 29.83 in 10.0 mi West 18.4 mph 26.5 mph N/A   Overcast
10:55 PM 40.1 °F 33.6 °F 36.7 °F 88% 29.84 in 10.0 mi West 10.4 mph 21.9 mph N/A   Overcast
11:15 PM 40.1 °F 32.7 °F 37.0 °F 89% 29.84 in 10.0 mi West 12.7 mph 17.3 mph N/A   Overcast
11:55 PM 40.1 °F 32.7 °F 36.7 °F 88% 29.85 in 10.0 mi West 12.7 mph 17.3 mph N/A   Overcast